• In Deutschland
  • Länderverzeichnis
  • Für 7 Tage
  • Wassertemperatur
  • Satellitenkarten
  • Wetterkarte
  • Widgets
  • user-avatar
    Anmelden

    Stündliche Wetter Oberkirch

    Heute, 19 Oktober, Donnerstag

    Zeit Temperatur Niederschläge Wind Luftdruck Luftfeuchtigkeit
    00:00 +13°C° 0 mm 1 m/S 738 mmHg 66%
    01:00 +13°C° 0 mm 1 m/S 738 mmHg 66%
    02:00 +13°C° 0 mm 1 m/S 738 mmHg 66%
    03:00 +13°C° 0 mm 1 m/S 737 mmHg 65%
    04:00 +14°C° 0 mm 1 m/S 737 mmHg 64%
    05:00 +14°C° 0 mm 1 m/S 737 mmHg 64%
    06:00 +14°C° 0 mm 1 m/S 738 mmHg 63%
    07:00 +14°C° 0 mm 1 m/S 738 mmHg 63%
    08:00 +16°C° 0 mm 1 m/S 738 mmHg 60%
    09:00 +18°C° 0 mm 1 m/S 738 mmHg 56%
    10:00 +20°C° 0 mm 1 m/S 738 mmHg 53%
    11:00 +22°C° 0 mm 1 m/S 738 mmHg 49%
    12:00 +23°C° 0 mm 1 m/S 738 mmHg 45%
    13:00 +24°C° 0 mm 1 m/S 738 mmHg 41%
    14:00 +24°C° 0 mm 1 m/S 737 mmHg 44%
    15:00 +24°C° 0 mm 1 m/S 737 mmHg 48%
    16:00 +23°C° 0 mm 1 m/S 737 mmHg 51%
    17:00 +21°C° 0 mm 1 m/S 737 mmHg 55%
    18:00 +19°C° 0 mm 1 m/S 737 mmHg 59%
    19:00 +16°C° 0 mm 1 m/S 737 mmHg 63%
    20:00 +16°C° 0 mm 1 m/S 737 mmHg 64%
    21:00 +15°C° 0 mm 1 m/S 737 mmHg 66%
    22:00 +15°C° 0 mm 1 m/S 737 mmHg 68%
    23:00 +14°C° 0 mm 1 m/S 737 mmHg 69%

    Morgen, 20 Oktober, Freitag

    Zeit Temperatur Niederschläge Wind Luftdruck Luftfeuchtigkeit
    00:00 +14°C° 0 mm 1 m/S 738 mmHg 70%
    01:00 +14°C° 0 mm 1 m/S 738 mmHg 70%
    02:00 +14°C° 0 mm 1 m/S 738 mmHg 70%
    03:00 +14°C° 0 mm 2 m/S 738 mmHg 70%
    04:00 +14°C° 0 mm 2 m/S 738 mmHg 70%
    05:00 +14°C° 0 mm 2 m/S 739 mmHg 70%
    06:00 +14°C° 0 mm 2 m/S 739 mmHg 70%
    07:00 +14°C° 0 mm 2 m/S 739 mmHg 70%
    08:00 +16°C° 0,1 mm 2 m/S 739 mmHg 67%
    09:00 +17°C° 0,1 mm 2 m/S 740 mmHg 64%
    10:00 +18°C° 0,1 mm 3 m/S 740 mmHg 61%
    11:00 +18°C° 0 mm 3 m/S 740 mmHg 61%
    12:00 +19°C° 0 mm 3 m/S 740 mmHg 60%
    13:00 +19°C° 0 mm 3 m/S 740 mmHg 59%
    14:00 +19°C° 0 mm 3 m/S 740 mmHg 61%
    15:00 +19°C° 0 mm 3 m/S 740 mmHg 63%
    16:00 +19°C° 0 mm 2 m/S 740 mmHg 65%
    17:00 +18°C° 0 mm 2 m/S 740 mmHg 71%
    18:00 +16°C° 0 mm 2 m/S 740 mmHg 77%
    19:00 +15°C° 0 mm 1 m/S 740 mmHg 83%
    20:00 +15°C° 0 mm 1 m/S 740 mmHg 84%
    21:00 +14°C° 0 mm 1 m/S 740 mmHg 85%
    22:00 +14°C° 0 mm 2 m/S 740 mmHg 85%
    23:00 +14°C° 0 mm 2 m/S 740 mmHg 84%

    übermorgen, 21 Oktober, Samstag

    Zeit Temperatur Niederschläge Wind Luftdruck Luftfeuchtigkeit
    00:00 +14°C° 0 mm 2 m/S 740 mmHg 82%
    01:00 +14°C° 0 mm 2 m/S 740 mmHg 81%
    02:00 +15°C° 0 mm 2 m/S 740 mmHg 79%
    03:00 +15°C° 0 mm 2 m/S 740 mmHg 77%
    04:00 +15°C° 0 mm 2 m/S 740 mmHg 75%
    05:00 +14°C° 0 mm 2 m/S 740 mmHg 77%
    06:00 +14°C° 0 mm 2 m/S 740 mmHg 78%
    07:00 +13°C° 0 mm 2 m/S 740 mmHg 80%
    08:00 +14°C° 0 mm 3 m/S 740 mmHg 74%
    09:00 +16°C° 0 mm 3 m/S 740 mmHg 69%
    10:00 +18°C° 0 mm 4 m/S 740 mmHg 64%
    11:00 +18°C° 0,1 mm 4 m/S 740 mmHg 65%
    12:00 +19°C° 0,1 mm 4 m/S 740 mmHg 65%
    13:00 +19°C° 0,1 mm 3 m/S 740 mmHg 66%
    14:00 +18°C° 0,4 mm 3 m/S 740 mmHg 71%
    15:00 +18°C° 0,4 mm 3 m/S 740 mmHg 75%
    16:00 +17°C° 0,4 mm 4 m/S 739 mmHg 80%
    17:00 +16°C° 1,1 mm 3 m/S 740 mmHg 83%
    18:00 +14°C° 1,1 mm 3 m/S 740 mmHg 86%
    19:00 +13°C° 1,1 mm 3 m/S 741 mmHg 90%
    20:00 +12°C° 0,4 mm 3 m/S 741 mmHg 90%
    21:00 +12°C° 0,4 mm 3 m/S 741 mmHg 89%
    22:00 +11°C° 0,4 mm 4 m/S 742 mmHg 89%
    23:00 +11°C° 0,2 mm 4 m/S 742 mmHg 89%

    22 Oktober, Sonntag

    Zeit Temperatur Niederschläge Wind Luftdruck Luftfeuchtigkeit
    00:00 +11°C° 0,2 mm 4 m/S 742 mmHg 89%
    01:00 +10°C° 0,2 mm 4 m/S 742 mmHg 88%
    02:00 +10°C° 0 mm 3 m/S 742 mmHg 89%
    03:00 +9°C° 0 mm 3 m/S 742 mmHg 89%
    04:00 +9°C° 0 mm 3 m/S 742 mmHg 90%
    05:00 +9°C° 0 mm 3 m/S 742 mmHg 90%
    06:00 +8°C° 0 mm 3 m/S 742 mmHg 90%
    07:00 +8°C° 0 mm 3 m/S 742 mmHg 90%
    08:00 +8°C° 0 mm 4 m/S 742 mmHg 85%
    09:00 +8°C° 0 mm 4 m/S 742 mmHg 80%
    10:00 +9°C° 0 mm 5 m/S 742 mmHg 76%
    11:00 +10°C° 0,1 mm 5 m/S 742 mmHg 72%
    12:00 +10°C° 0,1 mm 5 m/S 742 mmHg 68%
    13:00 +12°C° 0,1 mm 5 m/S 742 mmHg 64%
    14:00 +10°C° 0,1 mm 5 m/S 742 mmHg 66%
    15:00 +10°C° 0,1 mm 5 m/S 742 mmHg 68%
    16:00 +11°C° 0,1 mm 4 m/S 742 mmHg 69%
    17:00 +10°C° 0,3 mm 4 m/S 742 mmHg 75%
    18:00 +9°C° 0,3 mm 3 m/S 743 mmHg 81%
    19:00 +8°C° 0,3 mm 3 m/S 743 mmHg 87%
    20:00 +8°C° 0,1 mm 3 m/S 743 mmHg 87%
    21:00 +8°C° 0,1 mm 3 m/S 744 mmHg 88%
    22:00 +8°C° 0,1 mm 3 m/S 744 mmHg 89%
    23:00 +7°C° 0 mm 3 m/S 744 mmHg 90%

    23 Oktober, Montag

    Zeit Temperatur Niederschläge Wind Luftdruck Luftfeuchtigkeit
    00:00 +7°C° 0 mm 3 m/S 744 mmHg 90%
    01:00 +7°C° 0 mm 3 m/S 744 mmHg 91%
    02:00 +7°C° 0,1 mm 3 m/S 744 mmHg 91%
    03:00 +7°C° 0,1 mm 3 m/S 744 mmHg 91%
    04:00 +7°C° 0,1 mm 3 m/S 745 mmHg 92%
    05:00 +7°C° 0,2 mm 3 m/S 745 mmHg 92%
    06:00 +7°C° 0,2 mm 3 m/S 745 mmHg 92%
    07:00 +7°C° 0,2 mm 3 m/S 745 mmHg 92%
    08:00 +8°C° 0,1 mm 3 m/S 746 mmHg 90%
    09:00 +9°C° 0,1 mm 3 m/S 746 mmHg 88%
    10:00 +9°C° 0,1 mm 3 m/S 746 mmHg 86%
    11:00 +10°C° 0 mm 3 m/S 747 mmHg 82%
    12:00 +11°C° 0 mm 3 m/S 747 mmHg 78%
    13:00 +12°C° 0 mm 3 m/S 747 mmHg 74%
    14:00 +12°C° 0 mm 2 m/S 747 mmHg 75%
    15:00 +12°C° 0 mm 2 m/S 747 mmHg 76%
    16:00 +12°C° 0 mm 2 m/S 747 mmHg 77%
    17:00 +10°C° 0 mm 2 m/S 747 mmHg 82%
    18:00 +11°C° 0 mm 1 m/S 747 mmHg 86%
    19:00 +10°C° 0 mm 1 m/S 748 mmHg 90%
    20:00 +9°C° 0 mm 1 m/S 748 mmHg 90%
    21:00 +9°C° 0 mm 1 m/S 748 mmHg 91%
    22:00 +9°C° 0 mm 1 m/S 748 mmHg 91%
    23:00 +9°C° 0 mm 1 m/S 748 mmHg 90%

    24 Oktober, Dienstag

    Zeit Temperatur Niederschläge Wind Luftdruck Luftfeuchtigkeit
    00:00 +9°C° 0 mm 1 m/S 748 mmHg 90%
    01:00 +9°C° 0 mm 1 m/S 748 mmHg 89%
    02:00 +9°C° 0 mm 1 m/S 748 mmHg 89%
    03:00 +9°C° 0 mm 1 m/S 748 mmHg 89%
    04:00 +9°C° 0 mm 1 m/S 748 mmHg 89%
    05:00 +9°C° 0 mm 1 m/S 748 mmHg 89%
    06:00 +9°C° 0 mm 1 m/S 748 mmHg 89%
    07:00 +9°C° 0 mm 1 m/S 748 mmHg 88%
    08:00 +10°C° 0 mm 1 m/S 748 mmHg 84%
    09:00 +11°C° 0 mm 1 m/S 748 mmHg 80%
    10:00 +12°C° 0 mm 1 m/S 748 mmHg 76%
    11:00 +13°C° 0 mm 1 m/S 748 mmHg 73%
    12:00 +14°C° 0 mm 1 m/S 748 mmHg 70%
    13:00 +14°C° 0 mm 0 m/S 748 mmHg 67%
    14:00 +15°C° 0 mm 1 m/S 747 mmHg 68%
    15:00 +15°C° 0 mm 1 m/S 747 mmHg 69%
    16:00 +15°C° 0 mm 1 m/S 747 mmHg 71%
    17:00 +14°C° 0 mm 1 m/S 747 mmHg 76%
    18:00 +12°C° 0 mm 1 m/S 747 mmHg 81%
    19:00 +11°C° 0 mm 1 m/S 747 mmHg 87%
    20:00 +11°C° 0 mm 1 m/S 747 mmHg 87%
    21:00 +10°C° 0 mm 1 m/S 747 mmHg 88%
    22:00 +10°C° 0 mm 1 m/S 748 mmHg 89%
    23:00 +10°C° 0 mm 1 m/S 747 mmHg 90%
    Mehr zeigen